* Astronomy

Members Login
Post Info TOPIC: BREEZE-M tank re-entry


L

Posts: 131433
Date:
RE: BREEZE-M tank re-entry
Permalink  
 


Update:
The BREEZE-M tank re-entered the Earths atmosphere on the 12th September, 2012 @ 01:49 GMT ± 1 minute.

Inclination: 49.21°
Revolution Number:  3808
Predicted Location:   33°N, 159°E



__________________


L

Posts: 131433
Date:
Permalink  
 

Update:
The BREEZE-M tank is predicted to re-enter the Earths atmosphere on the 12th September, 2012 @ 02:00 GMT ± 24 hours.

BREEZE-M TANK
1 37800U 11045C   12255.06955294  .15793814  11658-4  46745-3 0   807
2 37800 049.2144 148.8915 0340681 034.1555 328.3333 15.73227242 37926

Period:       94.22 minutes
Inclination: 49.21°
Apogee:     837 km
Perigee:     125 km 
Revolution Number:  3808
Predicted Location:   45.5°N, 120.1°W



__________________


L

Posts: 131433
Date:
Permalink  
 

An BREEZE-M tank that was launched on the 17th August, 2011, from the Baikonur cosmodrome in Kazakhstan, for the Express-AM4 satellite mission is predicted to re-enter the Earths atmosphere on the 12th September, 2012 @ 02:00 GMT ± 48 hours.

BREEZE-M TANK
1 37800U 11045C   12253.32789183  .09351973  10314-4  43835-3 0   754
2 37800 049.2259 158.0110 0518922 025.7356 337.0156 15.28398572 37658

Period:       95.30 minutes
Inclination: 49.22°
Apogee:     940 km
Perigee:     126 km 
Revolution Number:  3808
Predicted Location:   49.2°N, 144.7°W



__________________
Page 1 of 1  sorted by
 
Quick Reply

Please log in to post quick replies.



Create your own FREE Forum
Report Abuse
Powered by ActiveBoard